Radiation Dose at Monitoring Post of Fukushima Daini Nuclear Power Station
Date,Time,MP-1(microSv/h),MP-2(microSv/h),MP-3(microSv/h),MP-4(microSv/h),MP-5(microSv/h),MP-6(microSv/h),MP-7(microSv/h),Wind Direction,Wind Velocity(m/s),Rain
2017/04/29,00:00,0.379,0.233,0.398,0.368,0.330,0.193,0.166,south-southwest,3.6,No
2017/04/29,00:10,0.380,0.232,0.401,0.368,0.332,0.193,0.167,south-southwest,4.2,No
2017/04/29,00:20,0.381,0.232,0.400,0.366,0.331,0.193,0.166,south-southwest,4.7,No
2017/04/29,00:30,0.380,0.232,0.398,0.369,0.332,0.192,0.167,south-southwest,4.1,No
2017/04/29,00:40,0.380,0.231,0.398,0.368,0.332,0.193,0.166,south,4.3,No
2017/04/29,00:50,0.380,0.232,0.398,0.367,0.330,0.193,0.167,south-southwest,5.6,No
2017/04/29,01:00,0.381,0.233,0.399,0.367,0.331,0.192,0.167,south-southwest,5.6,No
2017/04/29,01:10,0.379,0.233,0.397,0.368,0.331,0.193,0.167,south,5.6,No
2017/04/29,01:20,0.379,0.233,0.398,0.366,0.332,0.193,0.166,south,5.6,No
2017/04/29,01:30,0.380,0.233,0.400,0.367,0.330,0.193,0.167,south,4.9,No
2017/04/29,01:40,0.380,0.233,0.400,0.368,0.329,0.193,0.166,south,4.3,No
2017/04/29,01:50,0.380,0.232,0.397,0.367,0.332,0.193,0.166,south,4.0,No
2017/04/29,02:00,0.383,0.233,0.399,0.368,0.331,0.193,0.167,south-southwest,3.9,No
2017/04/29,02:10,0.380,0.233,0.399,0.367,0.330,0.193,0.166,south-southwest,3.9,No
2017/04/29,02:20,0.379,0.233,0.397,0.367,0.330,0.194,0.167,south,3.7,No
2017/04/29,02:30,0.380,0.232,0.398,0.368,0.331,0.194,0.167,south-southwest,4.4,No
2017/04/29,02:40,0.381,0.233,0.399,0.367,0.331,0.193,0.166,south,3.4,No
2017/04/29,02:50,0.379,0.233,0.399,0.368,0.332,0.193,0.167,south-southwest,3.2,No
2017/04/29,03:00,0.382,0.232,0.397,0.366,0.331,0.193,0.166,south,2.8,No
2017/04/29,03:10,0.379,0.232,0.398,0.367,0.330,0.193,0.166,south,2.6,No
2017/04/29,03:20,0.378,0.232,0.400,0.367,0.330,0.194,0.166,south-southwest,2.3,No
2017/04/29,03:30,0.379,0.231,0.398,0.368,0.331,0.193,0.166,south-southwest,2.5,No
2017/04/29,03:40,0.380,0.232,0.397,0.368,0.331,0.192,0.166,south-southwest,2.5,No
2017/04/29,03:50,0.379,0.233,0.399,0.368,0.330,0.192,0.167,south-southwest,3.1,No
2017/04/29,04:00,0.380,0.233,0.399,0.368,0.331,0.193,0.167,south-southwest,3.7,No
2017/04/29,04:10,0.380,0.231,0.397,0.366,0.331,0.194,0.166,south-southwest,4.4,No
2017/04/29,04:20,0.378,0.233,0.396,0.368,0.329,0.192,0.166,south-southwest,4.8,No
2017/04/29,04:30,0.378,0.233,0.398,0.367,0.331,0.193,0.167,south,4.9,No
2017/04/29,04:40,0.379,0.232,0.399,0.369,0.331,0.192,0.167,south,4.8,No
2017/04/29,04:50,0.379,0.232,0.398,0.366,0.331,0.194,0.167,south,3.9,No
2017/04/29,05:00,0.378,0.233,0.397,0.366,0.331,0.194,0.167,south,4.0,No
2017/04/29,05:10,0.380,0.233,0.398,0.366,0.331,0.192,0.167,south,4.2,No
2017/04/29,05:20,0.380,0.233,0.398,0.366,0.331,0.193,0.166,south-southwest,4.0,No
2017/04/29,05:30,0.379,0.233,0.398,0.366,0.331,0.193,0.166,south-southwest,3.6,No
2017/04/29,05:40,0.379,0.232,0.398,0.367,0.330,0.193,0.166,south,4.2,No
2017/04/29,05:50,0.380,0.233,0.399,0.368,0.330,0.192,0.166,south,4.3,No
2017/04/29,06:00,0.380,0.232,0.398,0.365,0.331,0.193,0.167,south,4.0,No
2017/04/29,06:10,0.379,0.232,0.398,0.367,0.332,0.193,0.166,south,3.9,No
2017/04/29,06:20,0.382,0.232,0.400,0.367,0.330,0.193,0.165,south,3.9,No
2017/04/29,06:30,0.379,0.232,0.399,0.367,0.331,0.193,0.165,south,4.1,No
2017/04/29,06:40,0.379,0.231,0.397,0.367,0.329,0.193,0.165,south,5.5,No
2017/04/29,06:50,0.379,0.232,0.400,0.369,0.330,0.192,0.165,south,6.2,No
2017/04/29,07:00,0.380,0.233,0.397,0.366,0.330,0.193,0.165,south,5.6,No
2017/04/29,07:10,0.380,0.231,0.397,0.368,0.328,0.192,0.165,south,7.2,No
2017/04/29,07:20,0.379,0.233,0.397,0.365,0.331,0.193,0.165,south-southwest,7.8,No
2017/04/29,07:30,0.377,0.231,0.396,0.365,0.328,0.193,0.165,south,5.7,No
2017/04/29,07:40,0.380,0.232,0.397,0.363,0.332,0.192,0.167,south,6.0,No
2017/04/29,07:50,0.376,0.230,0.397,0.367,0.328,0.192,0.166,south,6.8,No
2017/04/29,08:00,0.380,0.232,0.397,0.363,0.331,0.192,0.165,south,6.9,No
2017/04/29,08:10,0.377,0.230,0.395,0.365,0.328,0.191,0.166,south,8.4,No
2017/04/29,08:20,0.377,0.232,0.399,0.366,0.333,0.192,0.164,south,7.9,No
2017/04/29,08:30,0.379,0.233,0.398,0.363,0.327,0.193,0.165,south,7.7,No
2017/04/29,08:40,0.374,0.232,0.399,0.367,0.330,0.192,0.166,south,8.4,No
2017/04/29,08:50,0.379,0.233,0.397,0.367,0.328,0.192,0.165,south,8.7,No
2017/04/29,09:00,0.377,0.232,0.399,0.363,0.331,0.192,0.167,south,8.1,No
2017/04/29,09:10,0.376,0.232,0.397,0.367,0.329,0.192,0.165,south,8.5,No
2017/04/29,09:20,0.379,0.233,0.400,0.368,0.329,0.191,0.164,south,8.8,No
2017/04/29,09:30,0.377,0.230,0.396,0.364,0.331,0.192,0.166,south,8.9,No
2017/04/29,09:40,0.377,0.233,0.398,0.365,0.328,0.191,0.165,south-southwest,8.3,No
2017/04/29,09:50,0.381,0.232,0.397,0.369,0.326,0.192,0.164,south,9.2,No
2017/04/29,10:00,0.378,0.231,0.399,0.366,0.331,0.193,0.166,south,8.6,No
2017/04/29,10:10,0.374,0.231,0.396,0.364,0.329,0.192,0.165,south,8.1,No
2017/04/29,10:20,0.377,0.234,0.393,0.364,0.327,0.192,0.165,south,9.2,No
2017/04/29,10:30,0.380,0.232,0.397,0.369,0.331,0.193,0.165,south,10.4,No
2017/04/29,10:40,0.376,0.231,0.398,0.365,0.330,0.193,0.165,south,11.2,No
2017/04/29,10:50,0.376,0.233,0.395,0.365,0.328,0.192,0.166,south,12.5,No
2017/04/29,11:00,0.377,0.232,0.393,0.367,0.330,0.193,0.167,south,12.9,No
2017/04/29,11:10,0.381,0.231,0.398,0.370,0.329,0.192,0.165,south,12.5,No
2017/04/29,11:20,0.379,0.233,0.396,0.366,0.329,0.193,0.166,south,14.3,No
2017/04/29,11:30,0.375,0.231,0.395,0.367,0.330,0.193,0.166,south,13.2,No
2017/04/29,11:40,0.381,0.233,0.398,0.369,0.330,0.193,0.166,south,13.1,No
2017/04/29,11:50,0.380,0.233,0.399,0.366,0.330,0.192,0.167,south,14.9,No
2017/04/29,12:00,0.376,0.231,0.396,0.367,0.332,0.192,0.166,south,15.1,No
2017/04/29,12:10,0.380,0.233,0.395,0.369,0.328,0.192,0.167,south,15.8,No
2017/04/29,12:20,0.382,0.232,0.400,0.364,0.332,0.192,0.165,south,14.3,No
2017/04/29,12:30,0.377,0.232,0.398,0.369,0.329,0.192,0.166,south,14.6,No
2017/04/29,12:40,0.380,0.231,0.396,0.367,0.329,0.193,0.166,south,15.3,No
2017/04/29,12:50,0.379,0.233,0.398,0.366,0.332,0.192,0.166,south,14.7,No
2017/04/29,13:00,0.376,0.232,0.398,0.371,0.329,0.193,0.167,south,15.7,No
2017/04/29,13:10,0.380,0.233,0.395,0.365,0.330,0.192,0.165,south,13.7,No
2017/04/29,13:20,0.379,0.233,0.398,0.367,0.330,0.194,0.169,south,14.5,No
2017/04/29,13:30,0.377,0.233,0.401,0.368,0.328,0.193,0.167,south,12.7,No
2017/04/29,13:40,0.382,0.233,0.394,0.367,0.331,0.191,0.165,south,11.8,No
2017/04/29,13:50,0.378,0.232,0.398,0.370,0.332,0.193,0.167,south,13.7,No
2017/04/29,14:00,0.379,0.233,0.399,0.367,0.331,0.192,0.167,south,12.7,No
2017/04/29,14:10,0.381,0.232,0.397,0.368,0.332,0.193,0.166,south,14.3,No
2017/04/29,14:20,0.377,0.234,0.400,0.369,0.330,0.192,0.166,south,13.4,No
2017/04/29,14:30,0.382,0.233,0.399,0.369,0.333,0.193,0.166,south,14.9,No
2017/04/29,14:40,0.379,0.233,0.400,0.367,0.331,0.193,0.166,south,12.9,Yes
2017/04/29,14:50,0.382,0.234,0.400,0.371,0.332,0.193,0.166,southwest,5.3,Yes
2017/04/29,15:00,0.384,0.236,0.403,0.370,0.332,0.195,0.167,west,11.7,Yes
2017/04/29,15:10,0.386,0.240,0.403,0.372,0.335,0.199,0.172,northwest,5.5,Yes
2017/04/29,15:20,0.387,0.244,0.402,0.372,0.336,0.202,0.175,northeast,3.1,Yes
2017/04/29,15:30,0.390,0.245,0.407,0.373,0.336,0.205,0.177,east,4.2,Yes
2017/04/29,15:40,0.390,0.243,0.403,0.374,0.338,0.203,0.175,south-southeast,5.3,Yes
2017/04/29,15:50,0.387,0.241,0.399,0.370,0.336,0.201,0.175,southeast,5.6,No
2017/04/29,16:00,0.384,0.238,0.401,0.370,0.334,0.200,0.174,southeast,6.1,No
2017/04/29,16:10,0.384,0.238,0.396,0.369,0.334,0.199,0.172,south-southeast,5.6,No
2017/04/29,16:20,0.381,0.235,0.397,0.367,0.329,0.197,0.169,south,4.2,No
2017/04/29,16:30,0.381,0.235,0.394,0.364,0.331,0.195,0.169,southwest,3.8,No
2017/04/29,16:40,0.378,0.234,0.393,0.363,0.327,0.194,0.168,south-southwest,4.1,No
2017/04/29,16:50,0.380,0.233,0.391,0.364,0.329,0.193,0.167,south-southwest,5.3,No
2017/04/29,17:00,0.376,0.232,0.390,0.361,0.327,0.194,0.166,southwest,5.3,No
2017/04/29,17:10,0.378,0.231,0.391,0.364,0.328,0.193,0.165,southwest,5.2,No
2017/04/29,17:20,0.375,0.231,0.389,0.360,0.326,0.192,0.166,south-southwest,4.7,No
2017/04/29,17:30,0.377,0.230,0.392,0.361,0.328,0.190,0.165,southwest,4.2,No
2017/04/29,17:40,0.374,0.230,0.391,0.361,0.326,0.191,0.162,southwest,3.4,No
2017/04/29,17:50,0.377,0.231,0.389,0.359,0.327,0.190,0.164,west-southwest,2.7,No
2017/04/29,18:00,0.376,0.229,0.389,0.361,0.326,0.191,0.162,north,5.0,No
2017/04/29,18:10,0.376,0.229,0.390,0.359,0.324,0.189,0.164,north,3.3,No
2017/04/29,18:20,0.376,0.229,0.391,0.361,0.327,0.189,0.163,north,4.6,No
2017/04/29,18:30,0.374,0.229,0.389,0.359,0.324,0.190,0.163,north,4.2,No
2017/04/29,18:40,0.377,0.230,0.391,0.360,0.328,0.190,0.163,north-northwest,3.2,Yes
2017/04/29,18:50,0.375,0.232,0.390,0.360,0.326,0.191,0.163,north-northwest,1.9,Yes
2017/04/29,19:00,0.378,0.231,0.391,0.360,0.327,0.190,0.163,northwest,2.4,Yes
2017/04/29,19:10,0.377,0.232,0.392,0.362,0.327,0.189,0.163,west,3.4,No
2017/04/29,19:20,0.377,0.232,0.389,0.358,0.326,0.190,0.163,west-northwest,5.1,Yes
2017/04/29,19:30,0.377,0.231,0.392,0.360,0.327,0.191,0.163,west-northwest,6.2,No
2017/04/29,19:40,0.376,0.231,0.389,0.361,0.325,0.190,0.163,northwest,6.6,Yes
2017/04/29,19:50,0.379,0.232,0.391,0.362,0.328,0.192,0.164,north-northwest,10.2,Yes
2017/04/29,20:00,0.379,0.231,0.393,0.362,0.327,0.191,0.164,northwest,6.4,Yes
2017/04/29,20:10,0.380,0.232,0.392,0.360,0.327,0.191,0.165,north-northwest,5.0,No
2017/04/29,20:20,0.378,0.232,0.392,0.361,0.328,0.191,0.164,west-northwest,4.9,No
2017/04/29,20:30,0.377,0.230,0.391,0.361,0.326,0.191,0.165,west,3.8,No
2017/04/29,20:40,0.379,0.230,0.390,0.360,0.327,0.191,0.163,west-northwest,3.6,No
2017/04/29,20:50,0.377,0.232,0.392,0.362,0.327,0.191,0.163,west,4.3,No
2017/04/29,21:00,0.376,0.229,0.390,0.359,0.326,0.191,0.164,west,3.6,No
2017/04/29,21:10,0.376,0.229,0.391,0.360,0.327,0.191,0.164,southwest,5.1,No
2017/04/29,21:20,0.377,0.230,0.391,0.359,0.326,0.190,0.162,southwest,4.5,No
2017/04/29,21:30,0.377,0.230,0.391,0.359,0.326,0.191,0.163,west-southwest,3.2,No
2017/04/29,21:40,0.376,0.229,0.392,0.361,0.328,0.191,0.163,northwest,2.2,No
2017/04/29,21:50,0.375,0.230,0.390,0.359,0.325,0.190,0.163,north-northwest,2.8,No
2017/04/29,22:00,0.375,0.230,0.389,0.358,0.328,0.190,0.165,north-northwest,2.9,No
2017/04/29,22:10,0.375,0.229,0.390,0.362,0.327,0.191,0.163,west-northwest,1.9,No
2017/04/29,22:20,0.377,0.230,0.388,0.360,0.326,0.191,0.162,northwest,2.2,No
2017/04/29,22:30,0.376,0.230,0.390,0.360,0.326,0.190,0.164,west-northwest,3.2,No
2017/04/29,22:40,0.375,0.229,0.390,0.360,0.325,0.190,0.163,west-northwest,7.0,No
2017/04/29,22:50,0.376,0.230,0.390,0.359,0.325,0.190,0.163,northwest,5.9,No
2017/04/29,23:00,0.375,0.229,0.389,0.360,0.329,0.190,0.163,north-northwest,5.6,No
2017/04/29,23:10,0.377,0.230,0.390,0.361,0.326,0.189,0.162,north-northwest,3.5,No
2017/04/29,23:20,0.374,0.229,0.391,0.359,0.327,0.190,0.162,northwest,4.9,No
2017/04/29,23:30,0.376,0.230,0.389,0.361,0.326,0.190,0.164,north-northwest,4.7,No
2017/04/29,23:40,0.377,0.229,0.391,0.359,0.324,0.190,0.162,north,4.7,No
2017/04/29,23:50,0.374,0.230,0.388,0.359,0.326,0.190,0.162,north-northeast,5.0,No
